The Wales Marathon, Half, 10k and 5k
Skip Navigation Links
Results
Live Leaderboard
LCW Results
Race Stats
Smartphone Results
Race Website
15 Jul 2018
HyperLink
Click your name for detailed results
Page 1 of 21 (1010 items)
[1]234567...18192021
Pos
Bib No
Fav
Share
Name
Gun Time
Chip Time
Category
Cat Pos
Gender
Gen Pos
Club
Pace
1617Gareth PETTS2:45:57.82:45:56.3MSen1Male1TRI TRAINING HARDER 9.5 m/hr
25099Colin DAVENPORT2:47:02.22:47:01.9MSen2Male2MATLOCK AC 9.4 m/hr
33Richard GARDINER2:47:30.12:47:30.1V451Male3  9.4 m/hr
4931Harry WILTSHIRE2:55:22.72:55:22.5MSen3Male4  9.0 m/hr
5741Jordan SKELLY2:55:27.02:55:25.9MSen4Male5BRITCON/OFFTHATCOUCHFITNESS 9.0 m/hr
6131Matt CHIPPING2:55:50.92:55:48.8MSen5Male6  8.9 m/hr
7222Martyn DRISCOLL2:56:48.12:56:46.0MSen6Male7CARDIFF TRIATHLETES 8.9 m/hr
897Adam BRITTAIN2:57:35.62:57:32.9MSen7Male8  8.9 m/hr
95224John HOWELLS2:58:28.72:58:28.5MSen8Male9PONTYPRIDD ROADENTS AC 8.8 m/hr
105374Raul REISMANN3:00:29.83:00:26.3V401Male10SWANSEA HARRIERS 8.7 m/hr
1119Finn ARENTZ3:01:13.93:01:10.8MSen9Male11UNIVERSITY OF EXETER TRIATHLON CLUB 8.7 m/hr
12513Cornelius MARSHALL3:02:11.33:02:09.3V402Male12  8.6 m/hr
135452Oliver WHITBY3:02:11.33:00:26.7MSen10Male13  8.6 m/hr
14523Tom MCCARTHY3:02:30.53:02:29.6MSen11Male14CAERPHILLY TRIATHLON CLUB 8.6 m/hr
1514Daniel ANDERTON3:03:09.73:03:07.4MSen12Male15OXFORD TRI 8.6 m/hr
165084Alastair COOK3:05:27.13:05:24.5MSen13Male16SERPENTINE 8.5 m/hr
171Marcus HULTGREN3:05:51.13:05:49.9MSen14Male17  8.5 m/hr
18895Kyle WILLIAMS3:06:04.03:06:01.0MSen15Male18WREXHAM TRIATHLON 8.4 m/hr
19144Edward CLEMENTS3:06:33.73:06:31.5MSen16Male19TENBY ACES 8.4 m/hr
20826Jack TREMLETT3:07:07.03:07:01.9MSen17Male20BYNEA CC / UWTSD 8.4 m/hr
21299Danny GLOVER3:07:16.23:07:12.1V403Male21SYTRI 8.4 m/hr
225208David HAZELL3:07:39.13:06:54.0MSen18Male22CAERPHILLY RUNNERS 8.4 m/hr
235355Renatas PLYTNIKAS3:08:15.83:07:49.1V452Male23  8.3 m/hr
24236Carl EGDELL3:09:23.63:09:22.4V453Male24SHEFFIELD TRI CLUB 8.3 m/hr
25152David COLE3:09:39.43:09:38.3MSen19Male25CYCLE SPECIFIC 8.3 m/hr
26572William NEWBERY3:10:26.73:10:25.8V404Male269 ENDURANCE 8.3 m/hr
275129Craig DUMMER3:12:12.63:12:05.3V405Male27PORT TALBOT HARRIERS 8.2 m/hr
28406Garry JAMES3:12:52.83:12:19.4MSen20Male28BICESTER TRIATHLON CLUB 8.2 m/hr
295276Antony LETTS3:13:40.13:13:36.1V501Male29  8.1 m/hr
30544Robert MOLE3:13:42.33:13:30.5V454Male30BRAT CLUB 8.1 m/hr
31703Paul ROSE3:14:42.93:14:41.8V502Male31BUSTINSKIN TRIATHLON CLUB 8.1 m/hr
32695Mark ROBINSON3:14:59.63:14:55.0V406Male32CORNELLY STRIDERS AC 8.1 m/hr
335245Craig JONES3:15:18.43:15:16.2MSen21Male33  8.0 m/hr
34620Dan PHILLIPS3:15:36.03:15:12.8MSen22Male34NUFFIELD HEALTH 8.0 m/hr
3534Julian AYRES3:16:47.73:16:45.4MSen23Male35TRISMART 8.0 m/hr
36214Dan DICKINSON3:16:56.83:16:49.3V407Male36REAL FITNESS RACE TEAM 8.0 m/hr
375471Lewys WINFIELD-YOUNG3:16:58.83:16:42.1MSen24Male37AMERICAN FLYERS / THE TRI LIFE 8.0 m/hr
38339Rhys HARRIES3:18:10.33:18:06.1MSen25Male38WEST COAST TRIATHLON 7.9 m/hr
39570Victoria NEALON3:18:31.03:18:28.3FV351Female1  7.9 m/hr
405181Gareth GREY3:19:09.73:18:03.0MSen26Male39GOODGYM 7.9 m/hr
415035Rob BEECH3:19:12.33:19:08.0MSen27Male40PENSBY RUNNERS 7.9 m/hr
425520Karl WATTS3:19:20.73:19:17.4V408Male41  7.9 m/hr
435204Anne HARTMANN3:19:47.33:19:44.4FV352Female2PH RACING CLUB 7.9 m/hr
44881Ben WICKHAM3:20:18.03:20:12.5MSen28Male42EAST LONDON TRIATHLETES 7.8 m/hr
455186Robin GUY3:21:47.63:21:41.9V455Male43NEWPORT & DISTRICT RUNNING CLUB 7.8 m/hr
46725Alessandro SERVINI3:22:01.43:21:52.6MSen29Male44TRISURREY 7.8 m/hr
47800Ian THOMAS3:22:50.83:22:23.2V503Male45TEAM CHERWELL 7.7 m/hr
485125Lee DREW3:23:09.23:22:59.9MSen30Male46  7.7 m/hr
495380Russell ROBERTS3:23:42.23:20:18.2MSen31Male47  7.7 m/hr
5017Robert ANTHONY3:23:53.43:23:22.3MSen32Male48MANCHESTER TRIATHLON CLUB 7.7 m/hr
Page 1 of 21 (1010 items)
[1]234567...18192021
fb